Simultaneous Nadir Overpasses (SNOs) Predictions

Prediction of SNOs between AQUA and METOP-A Satellite Orbit:

Table of predicted SNOs for the next 14.0 days since TLE Epoch: 2/3/2012
Index Date (AQUA) Time (AQUA) AQUA Lat,Lon Date (METOP-A) Time (METOP-A) METOP-A Lat,Lon Distance(km) Time Diff (sec)
1 02/04/2012 10:40:15 -73.80,-165.90 02/04/2012 10:39:56 -73.77,-165.92 3.30 19
2 02/04/2012 11:29:44 73.88, 1.57 02/04/2012 11:30:34 73.85, 1.60 2.97 50
3 02/07/2012 05:24:58 73.27, 94.01 02/07/2012 05:23:50 73.22, 91.89 68.26 68
4 02/07/2012 06:14:34 -73.81, -99.50 02/07/2012 06:14:20 -73.83, -99.39 3.85 14
5 02/07/2012 07:04:02 73.84, 68.08 02/07/2012 07:04:59 73.85, 68.00 2.64 57
6 02/10/2012 00:59:20 73.52, 159.91 02/10/2012 00:58:09 73.47, 158.85 34.35 71
7 02/10/2012 01:48:51 -73.80, -33.04 02/10/2012 01:48:45 -73.78, -33.10 2.89 6
8 02/10/2012 02:38:20 73.88, 134.41 02/10/2012 02:39:22 73.90, 134.52 3.58 62
9 02/12/2012 20:33:42 73.75,-134.14 02/12/2012 20:32:29 73.71,-134.19 4.77 73
10 02/12/2012 21:23:09 -73.81, 33.36 02/12/2012 21:23:09 -73.83, 33.41 2.17 0
11 02/12/2012 22:12:38 73.90,-159.19 02/12/2012 22:13:47 73.89,-159.10 2.96 69
12 02/15/2012 16:07:59 73.74, -67.68 02/15/2012 16:06:53 73.75, -67.70 1.01 66
13 02/15/2012 16:57:26 -73.80, 99.83 02/15/2012 16:57:34 -73.82, 99.80 2.31 8




NCC Satellite Simultaneous Nadir Overpasses (SNOs) Prediction Service
